User: anonymous   Login
Location: Unspecified
(0.0000°N, 0.0000°E)
Time: 10:01:50
(UTC+00:00)
Language:

JUGNU - Orbit

View from above orbital plane
View from above orbital plane
View from above satellite
View from above satellite

Ground track
Ground track

The orbit data is extracted from the following two-line orbital elements,

1 37839U 11058B   24108.18784837  .00000959  00000-0  36443-3 0  9992
2 37839  19.9619  72.1371 0018638 344.0880 129.4790 14.13166324647089
Epoch (UTC): 17 April 2024 04:30:30
Eccentricity: 0.0018638
inclination: 19.9619°
perigee height: 835 km
apogee height: 862 km
right ascension of ascending node: 72.1371°
argument of perigee: 344.0880°
revolutions per day: 14.13166324
mean anomaly at epoch: 129.4790°
orbit number at epoch: 64708

The dashed part of the orbit path shows where the satellite is in the earth's shadow,  

DLR